| time (UTC) | temp F | wind direction | speed MPH | gust MPH | rain 1hr in | rain 24hr in | rain mn in | humidity % | barometer mb |
| 20260506113432 | 60 | 167 | 5.0 | 12.0 | 0.16 | 1.49 | 1.21 | 95 | 473.3 |
| 20260506112430 | 60 | 188 | 8.0 | 19.0 | 0.32 | 1.49 | 1.20 | 95 | 467.9 |
| 20260506111917 | 60 | 155 | 7.0 | 18.0 | 0.61 | 1.49 | 1.20 | 95 | 485.3 |
| 20260506110429 | 60 | 192 | 6.0 | 17.0 | 0.65 | 1.49 | 1.15 | 96 | 468.0 |
| 20260506105433 | 59 | 190 | 5.0 | 10.0 | 0.67 | 0.83 | 1.15 | 96 | 465.4 |
| 20260506104426 | 59 | 198 | 5.0 | 15.0 | 0.70 | 0.83 | 1.13 | 95 | 607.6 |
| 20260506103428 | 59 | 114 | 5.0 | 12.0 | 0.64 | 0.83 | 1.05 | 95 | 468.1 |
| 20260506102425 | 59 | 130 | 4.0 | 9.0 | 0.50 | 1.22 | 0.87 | 95 | 467.2 |
| 20260506101426 | 59 | 151 | 5.0 | 14.0 | 0.23 | 0.94 | 0.60 | 95 | 474.0 |
| 20260506100418 | 59 | 161 | 3.0 | 9.0 | 0.13 | 0.84 | 0.50 | 95 | 468.0 |
| 20260506095418 | 59 | 146 | 1.0 | 6.0 | 0.11 | 0.82 | 0.48 | 95 | 480.8 |
| 20260506094858 | 59 | 185 | 2.0 | 6.0 | 0.07 | 0.77 | 0.43 | 95 | 484.2 |
| 20260506093415 | 59 | 173 | 5.0 | 10.0 | 0.06 | 0.76 | 0.42 | 95 | 467.9 |
| 20260506092417 | 60 | 174 | 6.0 | 10.0 | 0.02 | 0.72 | 0.38 | 95 | 466.4 |
| 20260506091412 | 60 | 153 | 5.0 | 14.0 | 0.02 | 0.71 | 0.37 | 96 | 468.0 |
| 20260506090413 | 59 | 155 | 4.0 | 11.0 | 0.02 | 0.71 | 0.37 | 95 | 468.4 |
| 20260506085408 | 60 | 143 | 5.0 | 11.0 | 0.03 | 0.71 | 0.37 | 96 | 468.0 |
| 20260506084410 | 59 | 147 | 6.0 | 11.0 | 0.04 | 0.70 | 0.36 | 96 | 467.9 |
| 20260506083406 | 59 | 158 | 6.0 | 13.0 | 0.06 | 0.70 | 0.36 | 96 | 455.6 |
| 20260506082405 | 59 | 141 | 5.0 | 11.0 | 0.06 | 0.70 | 0.36 | 96 | 467.9 |
| 20260506081402 | 59 | 132 | 2.0 | 8.0 | 0.05 | 0.69 | 0.35 | 96 | 470.9 |
| 20260506080858 | 59 | 131 | 4.0 | 8.0 | 0.04 | 0.69 | 0.35 | 96 | 625.4 |
| 20260506073403 | 59 | 121 | 3.0 | 8.0 | 0.06 | 0.65 | 0.31 | 96 | 465.6 |
| 20260506072404 | 58 | 107 | 4.0 | 10.0 | 0.12 | 0.65 | 0.31 | 96 | 426.8 |
| 20260506071402 | 58 | 109 | 5.0 | 9.0 | 0.17 | 0.65 | 0.31 | 96 | 468.0 |
| 20260506070402 | 58 | 103 | 3.0 | 7.0 | 0.23 | 0.65 | 0.31 | 96 | 468.0 |
| 20260506062403 | 58 | 114 | 2.0 | 9.0 | 0.17 | 0.53 | 0.19 | 94 | 468.0 |
| 20260506061404 | 58 | 67 | 2.0 | 3.0 | 0.13 | 0.48 | 0.14 | 94 | 664.2 |
| 20260506060404 | 59 | 67 | 1.0 | 3.0 | 0.06 | 0.42 | 0.08 | 93 | 468.5 |
| 20260506051404 | 59 | 67 | 1.0 | 4.0 | 0.00 | 0.35 | 0.02 | 93 | 478.5 |
| 20260506050404 | 58 | 67 | 0.0 | 4.0 | 0.00 | 0.35 | 0.02 | 94 | 467.9 |
| 20260506044402 | 58 | 67 | 2.0 | 4.0 | 0.00 | 0.35 | 0.02 | 94 | 467.2 |
| 20260506043403 | 58 | 67 | 0.0 | 3.0 | 0.00 | 0.35 | 0.02 | 94 | 468.0 |
| 20260506042844 | 58 | 67 | 1.0 | 4.0 | 0.00 | 0.35 | 0.02 | 95 | 504.6 |
| 20260506041400 | 57 | 67 | 2.0 | 4.0 | 0.00 | 0.35 | 0.02 | 95 | 468.0 |
| 20260506040401 | 57 | 67 | 1.0 | 4.0 | 0.00 | 0.35 | 0.02 | 95 | 468.5 |
| 20260506035356 | 57 | 67 | 0.0 | 4.0 | 0.00 | 0.35 | 0.02 | 95 | 468.0 |
| 20260506034356 | 57 | 67 | 0.0 | 0.0 | 0.00 | 0.35 | 0.02 | 95 | 499.3 |
| 20260506033857 | 57 | 67 | 0.0 | 4.0 | 0.00 | 0.35 | 0.02 | 95 | 467.5 |
| 20260506032358 | 57 | 67 | 2.0 | 5.0 | 0.00 | 0.35 | 0.02 | 95 | 468.0 |
| 20260506031358 | 57 | 67 | 1.0 | 4.0 | 0.00 | 0.35 | 0.02 | 95 | 468.0 |
| 20260506030827 | 57 | 67 | 0.0 | 4.0 | 0.00 | 0.35 | 0.02 | 95 | 468.4 |
| 20260506025352 | 57 | 67 | 0.0 | 0.0 | 0.00 | 0.35 | 0.02 | 95 | 468.3 |
| 20260506024838 | 57 | 67 | 1.0 | 3.0 | 0.00 | 0.35 | 0.02 | 95 | 467.0 |
| 20260506023351 | 57 | 67 | 0.0 | 0.0 | 0.00 | 0.35 | 0.02 | 95 | 468.7 |
| 20260506023313 | 57 | 67 | 1.0 | 4.0 | 0.00 | 0.35 | 0.02 | 95 | 468.2 |
| 20260506021347 | 57 | 67 | 3.0 | 5.0 | 0.00 | 0.35 | 0.02 | 95 | 467.9 |
| 20260506020822 | 57 | 65 | 2.0 | 5.0 | 0.00 | 0.35 | 0.02 | 95 | 468.1 |
| 20260506015342 | 57 | 61 | 1.0 | 5.0 | 0.00 | 0.35 | 0.02 | 95 | 694.0 |
| 20260506014334 | 57 | 61 | 1.0 | 5.0 | 0.00 | 0.35 | 0.02 | 95 | 465.7 |
| 20260506013334 | 57 | 53 | 1.0 | 3.0 | 0.00 | 0.35 | 0.02 | 95 | 468.0 |
| 20260506012332 | 57 | 53 | 0.0 | 3.0 | 0.00 | 0.35 | 0.02 | 95 | 468.6 |
| 20260506011332 | 57 | 53 | 1.0 | 4.0 | 0.00 | 0.35 | 0.02 | 95 | 468.0 |
| 20260506010331 | 57 | 53 | 3.0 | 4.0 | 0.00 | 0.35 | 0.02 | 95 | 468.3 |
| 20260506005332 | 57 | 50 | 1.0 | 4.0 | 0.00 | 0.35 | 0.02 | 95 | 468.0 |
| 20260506004326 | 57 | 50 | 0.0 | 4.0 | 0.00 | 0.35 | 0.02 | 95 | 468.0 |
| 20260506003809 | 57 | 50 | 1.0 | 4.0 | 0.00 | 0.35 | 0.02 | 95 | 447.4 |
| 20260506002324 | 57 | 50 | 0.0 | 3.0 | 0.00 | 0.35 | 0.02 | 95 | 447.3 |
| 20260506001331 | 57 | 50 | 0.0 | 0.0 | 0.00 | 0.35 | 0.02 | 95 | 468.3 |
| 20260506000322 | 57 | 50 | 0.0 | 0.0 | 0.00 | 0.35 | 0.02 | 95 | 467.7 |
| 20260505235324 | 57 | 50 | 1.0 | 4.0 | 0.00 | 0.35 | 0.02 | 95 | 483.9 |
| 20260505234320 | 57 | 50 | 0.0 | 3.0 | 0.00 | 0.35 | 0.02 | 95 | 465.2 |
| 20260505233319 | 57 | 50 | 2.0 | 6.0 | 0.00 | 0.35 | 0.02 | 95 | 468.0 |
| 20260505232316 | 57 | 344 | 2.0 | 4.0 | 0.00 | 0.35 | 0.02 | 95 | 468.0 |
| 20260505231317 | 57 | 342 | 0.0 | 3.0 | 0.01 | 0.35 | 0.02 | 95 | 468.0 |
| 20260505230314 | 57 | 342 | 0.0 | 3.0 | 0.02 | 0.35 | 0.02 | 95 | 467.9 |
| 20260505225310 | 57 | 333 | 1.0 | 4.0 | 0.02 | 0.35 | 0.02 | 95 | 463.5 |
| 20260505224310 | 57 | 316 | 0.0 | 3.0 | 0.02 | 0.35 | 0.02 | 95 | 467.9 |
| 20260505223305 | 57 | 316 | 0.0 | 0.0 | 0.02 | 0.35 | 0.02 | 95 | 473.8 |
| 20260505222755 | 57 | 316 | 0.0 | 3.0 | 0.04 | 0.35 | 0.02 | 95 | 469.5 |
| 20260505221304 | 57 | 316 | 0.0 | 0.0 | 0.03 | 0.35 | 0.01 | 95 | 499.0 |
| 20260505220302 | 57 | 316 | 1.0 | 3.0 | 0.02 | 0.34 | 0.00 | 95 | 539.6 |
| 20260505215305 | 57 | 316 | 0.0 | 3.0 | 0.02 | 0.33 | 0.33 | 95 | 450.4 |
| 20260505214303 | 57 | 315 | 1.0 | 3.0 | 0.02 | 0.33 | 0.33 | 95 | 468.0 |
| 20260505213304 | 57 | 308 | 4.0 | 7.0 | 0.02 | 0.33 | 0.33 | 95 | 466.6 |
| 20260505212306 | 57 | 320 | 1.0 | 5.0 | 0.00 | 0.31 | 0.31 | 95 | 467.9 |
| 20260505211259 | 57 | 98 | 1.0 | 6.0 | 0.00 | 0.31 | 0.31 | 95 | 468.0 |
| 20260505210254 | 57 | 98 | 2.0 | 7.0 | 0.01 | 0.31 | 0.31 | 95 | 468.0 |
| 20260505205256 | 57 | 39 | 0.0 | 3.0 | 0.01 | 0.31 | 0.31 | 95 | 468.0 |
| 20260505204250 | 56 | 39 | 0.0 | 0.0 | 0.03 | 0.31 | 0.31 | 95 | 473.0 |
| 20260505203745 | 56 | 39 | 0.0 | 2.0 | 0.04 | 0.31 | 0.31 | 95 | 447.3 |
| 20260505202249 | 57 | 39 | 0.0 | 0.0 | 0.05 | 0.31 | 0.31 | 95 | 473.3 |
| 20260505201246 | 56 | 39 | 0.0 | 0.0 | 0.05 | 0.31 | 0.31 | 95 | 498.6 |
| 20260505200245 | 56 | 39 | 0.0 | 3.0 | 0.05 | 0.31 | 0.31 | 95 | 467.8 |
| 20260505195247 | 56 | 39 | 0.0 | 0.0 | 0.06 | 0.31 | 0.30 | 95 | 467.7 |
| 20260505194242 | 56 | 39 | 0.0 | 0.0 | 0.04 | 0.28 | 0.28 | 95 | 468.3 |
| 20260505193737 | 56 | 39 | 0.0 | 0.0 | 0.03 | 0.28 | 0.28 | 95 | 468.0 |
| 20260505192242 | 56 | 39 | 1.0 | 3.0 | 0.02 | 0.27 | 0.27 | 95 | 467.2 |
| 20260505191238 | 56 | 39 | 0.0 | 0.0 | 0.03 | 0.27 | 0.27 | 94 | 473.4 |
| 20260505190238 | 56 | 39 | 0.0 | 0.0 | 0.02 | 0.26 | 0.26 | 94 | 484.1 |
| 20260505185238 | 56 | 39 | 0.0 | 0.0 | 0.01 | 0.24 | 0.24 | 94 | 467.9 |
| 20260505184240 | 56 | 39 | 0.0 | 0.0 | 0.01 | 0.24 | 0.24 | 94 | 476.8 |
| 20260505183234 | 56 | 39 | 0.0 | 0.0 | 0.01 | 0.24 | 0.24 | 94 | 473.3 |
| 20260505182236 | 56 | 39 | 0.0 | 0.0 | 0.01 | 0.24 | 0.24 | 94 | 467.9 |
| 20260505181236 | 56 | 39 | 0.0 | 0.0 | 0.00 | 0.24 | 0.24 | 94 | 468.4 |
| 20260505180233 | 56 | 39 | 0.0 | 0.0 | 0.00 | 0.24 | 0.24 | 94 | 443.1 |
| 20260505180210 | 56 | 39 | 0.0 | 0.0 | 0.00 | 0.24 | 0.24 | 94 | 468.1 |
| 20260505174230 | 56 | 39 | 0.0 | 0.0 | 0.00 | 0.24 | 0.24 | 94 | 498.6 |
| 20260505173230 | 56 | 39 | 0.0 | 0.0 | 0.00 | 0.24 | 0.24 | 94 | 455.3 |
| 20260505172718 | 56 | 39 | 1.0 | 4.0 | 0.00 | 0.24 | 0.24 | 94 | 467.9 |
| 20260505171232 | 56 | 39 | 0.0 | 3.0 | 0.00 | 0.24 | 0.24 | 94 | 465.8 |
| 20260505170229 | 56 | 39 | 0.0 | 2.0 | 0.00 | 0.24 | 0.24 | 94 | 468.0 |
| 20260505165230 | 56 | 39 | 2.0 | 5.0 | 0.00 | 0.24 | 0.24 | 94 | 468.0 |
| 20260505164232 | 56 | 39 | 1.0 | 6.0 | 0.00 | 0.24 | 0.24 | 94 | 468.0 |
| 20260505163232 | 56 | 40 | 2.0 | 5.0 | 0.01 | 0.24 | 0.24 | 94 | 445.3 |
| 20260505162231 | 56 | 39 | 2.0 | 5.0 | 0.01 | 0.24 | 0.24 | 94 | 473.3 |
| 20260505161233 | 56 | 31 | 0.0 | 4.0 | 0.01 | 0.24 | 0.24 | 94 | 535.2 |
| 20260505160228 | 56 | 31 | 2.0 | 6.0 | 0.01 | 0.24 | 0.24 | 94 | 468.0 |
| 20260505153229 | 56 | 0 | 0.0 | 3.0 | 0.02 | 0.23 | 0.23 | 93 | 468.0 |
| 20260505152704 | 56 | 0 | 0.0 | 3.0 | 0.03 | 0.23 | 0.23 | 93 | 468.0 |
| 20260505151226 | 56 | 0 | 0.0 | 3.0 | 0.04 | 0.23 | 0.23 | 93 | 472.5 |
| 20260505150226 | 56 | 0 | 1.0 | 4.0 | 0.05 | 0.23 | 0.23 | 94 | 468.0 |
| 20260505130201 | 58 | 134 | 3.0 | 8.0 | 0.00 | 0.00 | 0.00 | 89 | 468.0 |
| 20260505124635 | 59 | 131 | 3.0 | 7.0 | 0.00 | 0.00 | 0.00 | 86 | 468.0 |
| 20260505123156 | 60 | 128 | 3.0 | 9.0 | 0.00 | 0.00 | 0.00 | 81 | 468.0 |
| 20260505122150 | 60 | 142 | 2.0 | 5.0 | 0.00 | 0.00 | 0.00 | 78 | 498.7 |
| 20260505121149 | 60 | 138 | 0.0 | 4.0 | 0.00 | 0.00 | 0.00 | 79 | 471.7 |
| 20260505120150 | 59 | 135 | 1.0 | 4.0 | 0.00 | 0.00 | 0.00 | 81 | 468.1 |
| 20260505115637 | 59 | 147 | 1.0 | 5.0 | 0.00 | 0.00 | 0.00 | 80 | 468.0 |